Content
SEND FEEDBACK

Daily
Averages
Monthly
Summary
United States of America

TOMBSTONE, ARIZONA


Home > North America > United States > Arizona
Elevation: 4392 feet     Latitude: 31 43N     Longitude: 110 04W

WEATHER
 
SELECT A DAY
Number of Records: 122,404;   Date Range: 1/3/95 - 9/22/14
 
SHARE

PRINT THIS DATA

[ ← Previous Day ]
WEATHER ALMANAC - FEBRUARY 16, 2013
[ Next Day → ]
[ °C ]   °F
Weather ElementAverageHighLow
Temperature50.5 °F64.9 °F (3:56 pm)35.1 °F (5:56 am)
Dewpoint9.1 °F16 °F (7:56 am)3 °F (4:56 pm)
Humidity21.4 %42 % (5:56 am)9 % (4:56 pm)
Barometer30.17 in30.29 in (6:56 am)30.02 in (11:56 pm)
Wind Speed9.4 mph12.7 mph (11:56 am)
Wind Gust18.4 mph (2:56 pm)
Weather ElementAverage
Visibility10 mi
Wind DirectionSE (136.8 °)

Weather ElementTotal
Precipitation---
Heating Degree Days15 (Base 65)
Averaged from 22 records on February 16, 2013
WEATHER CONDITIONS BREAKOUT
WIND DIRECTION BREAKOUT
WEATHER BY HOUR - FEBRUARY 16, 2013
[ °C ]   °F
Local TimeTemperatureDewpointHumidityBarometerVisibilityWind DirectionWind SpeedGust SpeedPrecipitationEventsConditions
1:56 AM41.0 °F12.9 °F32 %30.26 in10.0 miSE (140°)9.2 mphClear
2:56 AM42.1 °F10.9 °F28 %30.26 in10.0 miSE (130°)5.8 mphClear
3:56 AM37.9 °F12.9 °F36 %30.25 in10.0 miSE (130°)6.9 mphClear
4:56 AM37.9 °F12.9 °F36 %30.25 in10.0 miSE (130°)6.9 mphClear
5:56 AM35.1 °F14.0 °F42 %30.27 in10.0 miESE (110°)10.4 mphClear
6:56 AM36.0 °F14.0 °F41 %30.29 in10.0 miSE (130°)9.2 mphClear
7:56 AM43.0 °F16.0 °F34 %30.28 in10.0 miSE (140°)10.4 mphClear
8:56 AM50.0 °F10.9 °F21 %30.28 in10.0 miSE (130°)11.5 mphClear
10:56 AM55.0 °F9.0 °F16 %30.27 in10.0 miSE (140°)11.5 mphClear
11:56 AM57.9 °F6.1 °F13 %30.23 in10.0 miEast (80°)12.7 mphClear
12:56 PM61.0 °F5.0 °F11 %30.17 in10.0 miEast (100°)9.2 mphClear
1:56 PM62.1 °F5.0 °F10 %30.14 in10.0 miESE (120°)12.7 mphClear
2:56 PM64.0 °F8.1 °F11 %30.10 in10.0 miEast (90°)11.5 mph18.4 mphClear
3:56 PM64.9 °F6.1 °F10 %30.09 in10.0 miESE (120°)8.1 mphClear
4:56 PM64.0 °F3.0 °F9 %30.07 in10.0 miESE (110°)9.2 mph17.3 mphClear
5:56 PM59.0 °F5.0 °F12 %30.09 in10.0 miSouth (170°)6.9 mphClear
6:56 PM54.0 °F7.0 °F15 %30.11 in10.0 miSouth (180°)6.9 mphClear
7:56 PM48.9 °F10.0 °F21 %30.10 in10.0 miSE (140°)8.1 mphClear
8:56 PM50.0 °F8.1 °F18 %30.08 in10.0 miSouth (180°)8.1 mphClear
9:56 PM50.0 °F8.1 °F18 %30.07 in10.0 miSouth (190°)9.2 mphClear
10:56 PM48.0 °F8.1 °F20 %30.06 in10.0 miSouth (170°)10.4 mphClear
11:56 PM50.0 °F6.1 °F17 %30.02 in10.0 miSouth (180°)12.7 mphClear
Hourly data recorded from KFHU, located miles away from Tombstone, Arizona







STORIES FROM OUR PARTNERS